Powrót do katalogu

TITAN 3C TRANSTAGE DEB

AktywnyMEO
NORAD 39298·DEBRIS·🇺🇸 United States

Wystrzelony Sep 26, 1968 z Cape Canaveral Space Force Station

Loading…

Następne Przeloty (najbliższe 24 godziny)

TLE

ŚwieżeSource: Space-Track

Epoka: Sep 13, 2026, 19:47 UTC

1 39298U 68081AJ  26256.82458162 -.00000136  00000-0  00000-0 0  9992
2 39298   1.7752  31.0055 0148617 317.3109 108.9018  1.00183890 67178

Śledź TITAN 3C TRANSTAGE DEB w czasie rzeczywistym z AllMySat

Download on the App Store